This is the latest recevied weather packets stored in our database for station/object W8KVG. If no packets are shown the sender has not sent any weather packets the latest 10 day(s).
| Time | Temp. | Humidity | Pressure | Rain* | Wind** | Luminosity | Snow |
|---|---|---|---|---|---|---|---|
| 1778023030 | 20.56° C | 59% | 1006.6 hPa | 0 mm | - | 21 W/m² | - |
| 1778022729 | 21.11° C | 58% | 1006.6 hPa | 0 mm | - | 17 W/m² | - |
| 1778022426 | 21.11° C | 57% | 1006.6 hPa | 0 mm | - | 16 W/m² | - |
| 1778022123 | 21.11° C | 57% | 1006.8 hPa | 0 mm | - | 30 W/m² | - |
| 1778021819 | 21.11° C | 57% | 1006.8 hPa | 0 mm | - | 48 W/m² | - |
| 1778021516 | 21.11° C | 57% | 1006.8 hPa | 0 mm | - | 51 W/m² | - |
| 1778021211 | 21.11° C | 57% | 1006.8 hPa | 0 mm | - | 43 W/m² | - |
| 1778020910 | 21.11° C | 56% | 1006.9 hPa | 0 mm | - | 47 W/m² | - |
| 1778020607 | 21.11° C | 57% | 1006.8 hPa | 0 mm | - | 64 W/m² | - |
| 1778020302 | 21.11° C | 57% | 1006.9 hPa | 0 mm | - | 59 W/m² | - |
| 1778019999 | 21.11° C | 56% | 1007 hPa | 0 mm | - | 56 W/m² | - |
| 1778019695 | 21.67° C | 57% | 1007.1 hPa | 0 mm | - | 57 W/m² | - |
| 1778019392 | 21.67° C | 55% | 1006.8 hPa | 0 mm | - | 56 W/m² | - |
| 1778019089 | 21.67° C | 55% | 1007 hPa | 0 mm | - | 62 W/m² | - |
| 1778018787 | 22.22° C | 55% | 1006.9 hPa | 0 mm | - | 61 W/m² | - |
| 1778018484 | 22.22° C | 56% | 1007.2 hPa | 0 mm | - | 56 W/m² | - |
| 1778018181 | 22.22° C | 54% | 1006.9 hPa | 0 mm | - | 52 W/m² | - |
| 1778017879 | 22.78° C | 54% | 1007.2 hPa | 0 mm | - | 56 W/m² | - |
| 1778017577 | 22.22° C | 54% | 1007.3 hPa | 0 mm | - | 68 W/m² | - |
| 1778017274 | 22.22° C | 54% | 1007.1 hPa | 0 mm | - | 82 W/m² | - |
| 1778016972 | 21.67° C | 55% | 1006.8 hPa | 0 mm | - | 92 W/m² | - |
| 1778016668 | 21.67° C | 55% | 1006.9 hPa | 0 mm | - | 116 W/m² | - |
| 1778016364 | 22.22° C | 54% | 1006.9 hPa | 0 mm | - | 144 W/m² | - |
| 1778016062 | 21.67° C | 55% | 1006.9 hPa | 0 mm | - | 128 W/m² | - |
| 1778015758 | 21.67° C | 54% | 1006.9 hPa | 0 mm | - | 123 W/m² | - |
* Rain latest hour (hover to see other rain measurements)
** Current wind speed in m/s (hover to see current wind gust speed)